^^
Meteo Knjazevac Station Historical Data
Daily Summary for May 9, 2021 Units:  English    Metric   Both
Daily Weekly Monthly Yearly Custom
  High: Low: Average:
Temperature: 59 °F 54.1 °F 56.2 °F
Dew Point: 48.1 °F 47.6 °F 47.9 °F
Humidity: 79% 67% 74%
Wind Speed: 2mph 0mph 0.6mph
Wind Gust: 5mph - -
Wind- - SW
Pressure: 30.21 in 30.20 in -
Precipitation: 0.00 in    
Historical Graphs
 
 
Tabular Data for May 9, 2021
Time Temperature Dew Point Pressure Wind Wind Speed Wind Gust Humidity Rainfall Rate (Hourly) solar Conditions
00:00 59 °F 48.1 °F 30.21 in West 2 mph 3 mph 67% 0.00 in 0 W/m2
00:10 59 °F 48.1 °F 30.21 in WNW 1 mph 2 mph 67% 0.00 in 0 W/m2
00:20 58.6 °F 48.1 °F 30.21 in Calm   3 mph 68% 0.00 in 0 W/m2
00:30 58.5 °F 47.9 °F 30.21 in Calm   2 mph 68% 0.00 in 0 W/m2
00:40 58.1 °F 48 °F 30.21 in SSE 1 mph 3 mph 69% 0.00 in 0 W/m2
00:50 57.7 °F 48 °F 30.21 in Calm   4 mph 70% 0.00 in 0 W/m2
01:00 57.4 °F 47.7 °F 30.21 in SE 1 mph 5 mph 70% 0.00 in 0 W/m2
01:10 57 °F 48.1 °F 30.21 in SSW 1 mph 3 mph 72% 0.00 in 0 W/m2
01:20 56.8 °F 47.9 °F 30.20 in Calm   5 mph 72% 0.00 in 0 W/m2
01:30 56.7 °F 48.1 °F 30.20 in SE 2 mph 3 mph 73% 0.00 in 0 W/m2
01:40 56.5 °F 47.9 °F 30.20 in South 1 mph 4 mph 73% 0.00 in 0 W/m2
01:50 56.3 °F 47.8 °F 30.20 in NNW 1 mph 3 mph 73% 0.00 in 0 W/m2
02:00 56.3 °F 48.1 °F 30.20 in Calm   2 mph 74% 0.00 in 0 W/m2
02:10 56.1 °F 47.9 °F 30.20 in Calm   2 mph 74% 0.00 in 0 W/m2
02:20 55.9 °F 47.8 °F 30.20 in Calm   2 mph 74% 0.00 in 0 W/m2
02:30 55.8 °F 47.6 °F 30.20 in Calm   2 mph 74% 0.00 in 0 W/m2
02:40 55.8 °F 48 °F 30.20 in West 1 mph 2 mph 75% 0.00 in 0 W/m2
02:50 55.8 °F 48 °F 30.20 in Calm   1 mph 75% 0.00 in 0 W/m2
03:00 55.6 °F 47.8 °F 30.20 in SW 2 mph 4 mph 75% 0.00 in 0 W/m2
03:10 55.4 °F 48 °F 30.20 in Calm   3 mph 76% 0.00 in 0 W/m2
03:20 55.2 °F 48.1 °F 30.20 in Calm   3 mph 77% 0.00 in 0 W/m2
03:30 55 °F 48 °F 30.20 in Calm   2 mph 77% 0.00 in 0 W/m2
03:40 55 °F 48 °F 30.20 in North 1 mph 3 mph 77% 0.00 in 0 W/m2
03:50 54.7 °F 48 °F 30.20 in South 1 mph 3 mph 78% 0.00 in 0 W/m2
04:00 54.7 °F 48 °F 30.20 in North 1 mph 4 mph 78% 0.00 in 0 W/m2
04:10 54.5 °F 47.8 °F 30.20 in Calm   5 mph 78% 0.00 in 0 W/m2
04:20 54.3 °F 47.6 °F 30.20 in Calm   2 mph 78% 0.00 in 0 W/m2
04:30 54.1 °F 47.8 °F 30.20 in NW 1 mph 3 mph 79% 0.00 in 0 W/m2
04:40 54.1 °F 47.8 °F 30.20 in Calm   2 mph 79% 0.00 in 0 W/m2
Knjazevac, Serbia
Compliments of Weather Underground - 2 mb